cover

 

Get it on iTunes StoreListen on Apple Music

Flower Power

#Trackname / Key / BPM / Publish dateArtists, Remixers / Label
1 120 bpm, 2A / Eb minor, 2019-09-13, Afro House,  1  1
2 128 bpm, 11B / A major, 2019-09-06, Techno,  0  22
3 125 bpm, 9A / E minor, 2019-09-06, Progressive House,  0  22
4 128 bpm, 2B / F# major, 2019-09-06, Techno,  0  22
5 125 bpm, 7A / D minor, 2019-09-06, Melodic House & Techno,  0  22
6 128 bpm, 7A / D minor, 2019-09-06, Techno,  0  22
7 122 bpm, 11B / A major, 2019-09-06, Melodic House & Techno,  0  22
8 125 bpm, 12B / E major, 2019-09-06, Melodic House & Techno,  0  22
9 130 bpm, 9A / E minor, 2019-09-06, Progressive House,  0  22
10 124 bpm, 2A / Eb minor, 2019-09-06, Melodic House & Techno,  0  22
11 123 bpm, 2A / Eb minor, 2019-09-06, Melodic House & Techno,  0  22
12 128 bpm, 7B / F major, 2019-09-06, Progressive House,  0  22
13 125 bpm, 12A / Db minor, 2019-09-06, Melodic House & Techno,  0  22
14 128 bpm, 7A / D minor, 2019-09-06, Melodic House & Techno,  0  22
15 122 bpm, 9B / G major, 2019-09-06, Melodic House & Techno,  0  22
16 121 bpm, 7A / D minor, 2019-09-06, Progressive House,  0  22
17 122 bpm, 1A / Ab minor, 2019-09-06, Melodic House & Techno,  0  22
18 125 bpm, 5A / C minor, 2019-09-06, Melodic House & Techno,  0  22
19 121 bpm, 8B / C major, 2019-09-06, Melodic House & Techno,  0  22
20 121 bpm, 8A / A minor, 2019-09-06, Melodic House & Techno,  0  22
21 123 bpm, 6A / G minor, 2019-09-06, Melodic House & Techno,  0  22
22 131 bpm, 10A / B minor, 2019-09-06, Melodic House & Techno,  0  22
23 125 bpm, 5A / C minor, 2019-09-06, Melodic House & Techno,  0  22
24 129 bpm, 1B / B major, 2019-08-23, Techno,  0  22
25 128 bpm, 5A / C minor, 2019-08-23, Techno,  0  22
26 128 bpm, 6A / G minor, 2019-08-23, Techno,  0  22
27 125 bpm, 8B / C major, 2019-08-23, Techno,  0  22
28 126 bpm, 10A / B minor, 2019-08-23, Techno,  0  22
29 130 bpm, 7A / D minor, 2019-08-23, Techno,  0  22
30 124 bpm, 8A / A minor, 2019-08-23, Techno,  0  22
31 127 bpm, 11B / A major, 2019-08-23, Techno,  0  22
32 125 bpm, 7B / F major, 2019-08-23, Techno,  0  22
33 122 bpm, 7A / D minor, 2019-08-23, Techno,  0  22
34 122 bpm, 8A / A minor, 2019-08-23, Techno,  0  22
35 124 bpm, 9B / G major, 2019-08-23, Techno,  0  22
36 124 bpm, 7A / D minor, 2019-08-23, Techno,  0  22
37 125 bpm, 10A / B minor, 2019-08-23, Techno,  0  22
38 123 bpm, 7A / D minor, 2019-08-23, Techno,  0  22
39 128 bpm, 8A / A minor, 2019-08-23, Techno,  0  22
40 127 bpm, 8A / A minor, 2019-08-23, Techno,  0  22
41 129 bpm, 8A / A minor, 2019-08-23, Techno,  0  22
42 127 bpm, 9A / E minor, 2019-08-23, Techno,  0  22
43 120 bpm, 7A / D minor, 2019-08-23, Techno,  0  22
44 124 bpm, 8A / A minor, 2019-08-23, Techno,  0  22
45 125 bpm, 8A / A minor, 2019-08-23, Techno,  0  22
46 122 bpm, 10A / B minor, 2019-08-16, Melodic House & Techno,  0  23
47 128 bpm, 10B / D major, 2019-08-16, Progressive House,  0  23
48 125 bpm, 2A / Eb minor, 2019-08-16, Melodic House & Techno,  0  23
49 122 bpm, 7B / F major, 2019-08-16, Progressive House,  0  23
50 125 bpm, 7B / F major, 2019-08-16, Melodic House & Techno,  0  23
51 125 bpm, 11B / A major, 2019-08-16, Melodic House & Techno,  0  23
52 123 bpm, 6A / G minor, 2019-08-16, Melodic House & Techno,  0  23
53 123 bpm, 5A / C minor, 2019-08-16, Melodic House & Techno,  0  23
54 125 bpm, 7A / D minor, 2019-08-16, Melodic House & Techno,  0  23
55 125 bpm, 9B / G major, 2019-08-16, Melodic House & Techno,  0  23
56 128 bpm, 11B / A major, 2019-08-16, Melodic House & Techno,  0  23
57 122 bpm, 10B / D major, 2019-08-16, Melodic House & Techno,  0  23
58 124 bpm, 8A / A minor, 2019-08-16, Melodic House & Techno,  0  23
59 125 bpm, 10B / D major, 2019-08-16, Melodic House & Techno,  0  23
60 129 bpm, 5A / C minor, 2019-08-16, Melodic House & Techno,  0  23
61 125 bpm, 8A / A minor, 2019-08-16, Melodic House & Techno,  0  23
62 137 bpm, 11B / A major, 2019-08-16, Melodic House & Techno,  0  23
63 128 bpm, 9A / E minor, 2019-08-16, Melodic House & Techno,  0  23
64 124 bpm, 8A / A minor, 2019-08-16, Melodic House & Techno,  0  23
65 128 bpm, 6A / G minor, 2019-08-16, Melodic House & Techno,  0  23
66 122 bpm, 11A / F# minor, 2019-08-16, Melodic House & Techno,  0  23
67 126 bpm, 6A / G minor, 2019-08-16, Melodic House & Techno,  0  23
68 124 bpm, 11B / A major, 2019-08-16, Melodic House & Techno,  0  23
69 107 bpm, 8B / C major, 2019-08-05, Electronica,  0  24
70 146 bpm, 12B / E major, 2019-08-05, Psy-Trance,  0  24
71 120 bpm, 11A / F# minor, 2019-08-05, Melodic House & Techno,  0  24
72 124 bpm, 7A / D minor, 2019-08-05, Melodic House & Techno,  0  24
73 125 bpm, 2A / Eb minor, 2019-08-05, Melodic House & Techno,  0  24
74 124 bpm, 10B / D major, 2019-08-05, Melodic House & Techno,  0  24
75 125 bpm, 9A / E minor, 2019-08-05, Progressive House,  1  24
76 126 bpm, 10B / D major, 2019-08-05, Melodic House & Techno,  0  24
77 121 bpm, 7A / D minor, 2019-08-05, Melodic House & Techno,  0  24
78 123 bpm, 12B / E major, 2019-08-05, Progressive House,  0  24
79 122 bpm, 3A / Bb minor, 2019-08-05, Melodic House & Techno,  0  24
80 126 bpm, 11B / A major, 2019-08-05, Melodic House & Techno,  0  24
81 123 bpm, 6A / G minor, 2019-08-05, Melodic House & Techno,  0  24
82 122 bpm, 10B / D major, 2019-08-05, Progressive House,  0  24
83 125 bpm, 3A / Bb minor, 2019-08-05, Melodic House & Techno,  1  24
84 135 bpm, 4B / Ab major, 2019-08-05, Melodic House & Techno,  0  24
85 104 bpm, 7A / D minor, 2019-08-05, Melodic House & Techno,  0  24
86 122 bpm, 9A / E minor, 2019-08-05, Progressive House,  1  24
87 123 bpm, 2A / Eb minor, 2019-08-05, Melodic House & Techno,  0  24
88 124 bpm, 4A / F minor, 2019-08-05, Melodic House & Techno,  0  24
89 124 bpm, 7A / D minor, 2019-08-05, Progressive House,  0  24
90 130 bpm, 8A / A minor, 2019-08-05, Melodic House & Techno,  1  24
91 128 bpm, 8A / A minor, 2019-08-05, Melodic House & Techno,  1  24
92 123 bpm, 8B / C major, 2019-08-05, Progressive House,  0  24
93 125 bpm, 5B / Eb major, 2019-07-29, Minimal,  0  24
94 125 bpm, 12B / E major, 2019-07-29, Melodic House & Techno,  0  24
95 122 bpm, 9B / G major, 2019-07-29, Melodic House & Techno,  1  24
96 122 bpm, 4A / F minor, 2019-07-29, Electronica,  0  24
97 120 bpm, 8B / C major, 2019-07-29, Melodic House & Techno,  0  24
98 117 bpm, 7A / D minor, 2019-07-29, Melodic House & Techno,  0  24
99 125 bpm, 10B / D major, 2019-07-29, Melodic House & Techno,  0  24
100 124 bpm, 7B / F major, 2019-07-29, Melodic House & Techno,  0  24
×

Sign in

Sign in to access your personalized pages, follow artists and labels you love, and create playlists fromyour favorite tracks.

Please wait...